Regional Weather Roundup
Issued by NWS

Home | Current Version | Previous Version | Text Only | Print | Product List | Glossary Off
Versions: 1 2 3 4 5 6 7 8 9 10 11 12 13 14 15 16 17 18 19 20 21 22 23 24 25 26 27 28 29 30 31 32 33 34 35 36 37 38 39 40 41 42 43 44 45 46 47 48 49 50

000
ASUS43 KFSD 291810
RWRSD

WEATHER ROUNDUP FOR SOUTH DAKOTA
NATIONAL WEATHER SERVICE SIOUX FALLS SD
100 PM CDT MON JUN 29 2015

NOTE: "FAIR" INDICATES FEW OR NO CLOUDS BELOW 12,000 FEET WITH NO
SIGNIFICANT WEATHER AND/OR OBSTRUCTIONS TO VISIBILITY.


SDZ001>005-009-010-012>017-291900-
NORTHWEST AND NORTH CENTRAL SOUTH DAKOTA

CITY           SKY/WX    TMP DP  RH WIND       PRES   REMARKS
BUFFALO          N/A    N/A N/A N/A MISG      30.02R
FAITH            N/A     87  59  38 NW7       30.04S
MOBRIDGE       SUNNY     89  60  37 NW13      29.95F
$$

SDZ012>016-024>037-041>051-057-063-072>074-291900-
SOUTHWEST AND SOUTH CENTRAL SOUTH DAKOTA

CITY           SKY/WX    TMP DP  RH WIND       PRES   REMARKS
RAPID CTY ARPT SUNNY     84  63  49 N8        30.10S
PIERRE         SUNNY     85  63  47 W9        29.97F
CUSTER         SUNNY     78  53  41 W8        30.25S
ELLSWORTH AFB  SUNNY     83  60  46 N8        30.09F
PINE RIDGE     SUNNY     84  56  38 NW8       30.11R
SPEARFISH      FAIR      82  57  42 N5        30.15F
WINNER         FAIR      87  50  27 N10       30.01F
$$

SDZ004>011-016>023-039-040-291900-
NORTHEAST SOUTH DAKOTA

CITY           SKY/WX    TMP DP  RH WIND       PRES   REMARKS
ABERDEEN       SUNNY     83  62  49 NW13      29.92F
WATERTOWN      SUNNY     77  60  55 NW9       29.94S
BROOKINGS      SUNNY     77  61  57 NW12      29.95S
SISSETON         N/A     79  61  53 NW12      29.88S
$$

SDZ017-020-022-023-036>040-048>070-291900-
SOUTHEAST SOUTH DAKOTA

CITY           SKY/WX    TMP DP  RH WIND       PRES   REMARKS
SIOUX FALLS    CLOUDY    81  60  48 NW12      29.94S
HURON          SUNNY     82  59  45 NW12      29.94F
CHAMBERLAIN    SUNNY     85  58  39 NW9       29.98F
MITCHELL       SUNNY     83  60  45 NW10      29.96S HAZE
YANKTON        SUNNY     82  59  44 NW14      29.94F
$$

ABBREVIATIONS USED IN REMARKS
   TC - TEMPERATURE IN CELSIUS
  WCI - WIND CHILL INDEX
   HX - HEAT INDEX
  VSB - VISIBILITY



USA.gov is the U.S. government's official web portal to all federal, state and local government web resources and services.